Weather History for KFOE - November, 2011

Change the Weather History Date:

Saturday, November 5, 2011

  Actual Average Record
Temperature  
Mean Temperature 50 °F -  
Max Temperature 62 °F 55 °F 77 °F (1963)
Min Temperature 39 °F 35 °F 17 °F (1959)
Degree Days  
Heating Degree Days 15    
Moisture  
Dew Point 41 °F    
Average Humidity 70    
Maximum Humidity 89    
Minimum Humidity 48    
Precipitation  
Precipitation 0.00 in - - ()
Sea Level Pressure  
Sea Level Pressure 29.90 in    
Wind  
Wind Speed 13 mph (SSE)    
Max Wind Speed 25 mph    
Max Gust Speed 38 mph    
Visibility 10 miles    
Events      
Averages and records for this station are not official NWS values.
T = Trace of Precipitation, MM = Missing Value Source: NWS Daily Summary

Daily Weather History Graph

Daily Weather History Graph

Search for Another Location

Airport or City:

Trip Planner

Search our weather history database for the weather conditions in past years. The results will help you decide how hot, cold, wet, or windy it might be!

Date:

Astronomy

Nov. 05, 2011 Rise Set
Actual Time 7:54 AM CDT 6:17 PM CDT
Civil Twilight 7:26 AM CDT 6:45 PM CDT
Nautical Twilight 6:54 AM CDT 7:17 PM CDT
Astronomical Twilight 6:23 AM CDT 7:48 PM CDT
Moon 3:34 PM CDT (11/5) 3:07 AM CDT (11/5)
Length of Visible Light 11h 19m
Length of Day
10h 23m
Waxing Gibbous, 78% of the Moon is Illuminated
Nov 5
Waxing Gibbous
Nov 10
Full
Nov 18
Last Quarter
Nov 25
New
Dec 2
First Quarter

Hourly Weather History & Observations

Time (CDT) Temp. Windchill Dew Point Humidity Pressure Visibility Wind Dir Wind Speed Gust Speed Precip Events Conditions
12:53 AM 44.1 °F 40.1 °F 39.0 °F 82% 30.05 in 10.0 mi SE 6.9 mph - N/A   Clear
1:53 AM 42.1 °F 37.1 °F 39.0 °F 89% 30.03 in 10.0 mi SE 8.1 mph - N/A   Clear
2:53 AM 41.0 °F 37.1 °F 37.9 °F 89% 30.03 in 10.0 mi SE 5.8 mph - N/A   Clear
3:53 AM 39.9 °F 35.8 °F 37.0 °F 89% 30.02 in 10.0 mi SE 5.8 mph - N/A   Clear
4:53 AM 42.1 °F 37.1 °F 37.9 °F 85% 30.01 in 10.0 mi SSE 8.1 mph - N/A   Clear
5:53 AM 44.1 °F 38.1 °F 39.9 °F 85% 30.01 in 10.0 mi SSE 11.5 mph - N/A   Clear
8:53 AM 46.0 °F 39.0 °F 41.0 °F 83% 30.00 in 10.0 mi SSE 17.3 mph 20.7 mph N/A   Scattered Clouds
9:53 AM 46.9 °F - 42.1 °F 83% 29.99 in 10.0 mi SSE 20.7 mph 27.6 mph N/A   Overcast
10:53 AM 48.9 °F - 43.0 °F 80% 29.97 in 10.0 mi South 19.6 mph 26.5 mph N/A   Overcast
11:27 AM 51.8 °F - 42.8 °F 71% 29.95 in 10.0 mi South 20.7 mph 31.1 mph N/A   Mostly Cloudy
11:50 AM 51.8 °F - 42.8 °F 71% 29.94 in 10.0 mi SSE 20.7 mph 28.8 mph N/A   Scattered Clouds
11:53 AM 52.0 °F - 43.0 °F 71% 29.94 in 10.0 mi South 18.4 mph 28.8 mph N/A   Scattered Clouds
12:53 PM 55.9 °F - 42.1 °F 60% 29.91 in 10.0 mi South 23.0 mph 38.0 mph N/A   Clear
2:53 PM 61.0 °F - 41.0 °F 48% 29.83 in 10.0 mi South 19.6 mph 33.4 mph N/A   Clear
3:53 PM 61.0 °F - 42.1 °F 50% 29.80 in 10.0 mi SSE 25.3 mph 29.9 mph N/A   Clear
4:53 PM 59.0 °F - 42.1 °F 53% 29.78 in 10.0 mi SSE 23.0 mph 28.8 mph N/A   Clear
5:53 PM 59.0 °F - 42.1 °F 53% 29.75 in 10.0 mi SSE 19.6 mph 31.1 mph N/A   Clear
6:53 PM 57.0 °F - 42.1 °F 57% 29.74 in 10.0 mi SSE 17.3 mph - N/A   Clear
8:53 PM 55.9 °F - 41.0 °F 57% 29.75 in 10.0 mi SSE 19.6 mph 26.5 mph N/A   Clear
9:53 PM 54.0 °F - 41.0 °F 62% 29.78 in 10.0 mi South 17.3 mph 24.2 mph N/A   Clear
10:53 PM 54.0 °F - 41.0 °F 62% 29.79 in 10.0 mi South 16.1 mph 25.3 mph N/A   Clear
11:53 PM 53.1 °F - 42.1 °F 66% 29.76 in 10.0 mi South 16.1 mph 25.3 mph N/A   Clear